W1JCN Weather Reports


Display with metric or nautical units.
time (UTC)temp
F
wind
direction
speed
MPH
gust
MPH
rain 1hr
in
rain 24hr
in
rain mn
in
humidity
%
barometer
mb
20260509112358 36 0 0.0 0.0 0.00 0.00 0.00 93 1011.3
20260509111458 35 0 0.0 0.0 0.00 0.00 0.00 93 1011.2
20260509110558 34 0 0.0 0.0 0.00 0.00 0.00 93 1011.2
20260509105658 34 0 0.0 0.0 0.00 0.00 0.00 93 1011.2
20260509104758 34 0 0.0 0.0 0.00 0.00 0.00 93 1011.2
20260509102958 33 0 0.0 0.0 0.00 0.00 0.00 93 1011.1
20260509102058 32 0 0.0 0.0 0.00 0.00 0.00 93 1011.0
20260509101157 32 0 0.0 0.0 0.00 0.00 0.00 93 1011.0
20260509100258 32 0 0.0 0.0 0.00 0.00 0.00 93 1011.1
20260509095357 31 0 0.0 0.0 0.00 0.00 0.00 93 1011.0
20260509094457 31 0 0.0 0.0 0.00 0.00 0.00 92 1010.9
20260509093557 31 0 0.0 0.0 0.00 0.00 0.00 92 1010.8
20260509092658 31 0 0.0 0.0 0.00 0.00 0.00 92 1010.7
20260509091757 30 0 0.0 0.0 0.00 0.00 0.00 92 1010.6
20260509090857 30 0 0.0 0.0 0.00 0.00 0.00 92 1010.5
20260509085957 30 0 0.0 0.0 0.00 0.00 0.00 92 1010.4
20260509082357 30 0 0.0 0.0 0.00 0.00 0.00 92 1010.1
20260509081457 30 0 0.0 0.0 0.00 0.00 0.00 91 1010.1
20260509080557 30 0 0.0 0.0 0.00 0.00 0.00 91 1010.1
20260509075657 30 0 0.0 0.0 0.00 0.00 0.00 91 1010.1
20260509074757 30 0 0.0 0.0 0.00 0.00 0.00 91 1010.2
20260509073857 30 0 0.0 0.0 0.00 0.00 0.00 91 1010.1
20260509072957 30 255 0.0 1.0 0.00 0.00 0.00 91 1010.1
20260509072057 30 0 0.0 0.0 0.00 0.00 0.00 90 1010.2
20260509071157 31 0 0.0 0.0 0.00 0.00 0.00 90 1010.2
20260509070257 31 0 0.0 0.0 0.00 0.00 0.00 90 1010.2
20260509065357 31 0 0.0 0.0 0.00 0.00 0.00 90 1010.4
20260509064457 31 0 0.0 0.0 0.00 0.00 0.00 90 1010.5
20260509063557 31 0 0.0 0.0 0.00 0.00 0.00 89 1010.4
20260509062657 32 0 0.0 0.0 0.00 0.00 0.00 89 1010.6
20260509055957 32 0 0.0 0.0 0.00 0.00 0.00 89 1010.6
20260509055057 32 0 0.0 0.0 0.00 0.00 0.00 88 1010.8
20260509053257 32 0 0.0 0.0 0.00 0.00 0.00 88 1010.6
20260509052357 33 0 0.0 0.0 0.00 0.00 0.00 88 1010.5
20260509051457 33 0 0.0 0.0 0.00 0.00 0.00 88 1010.5
20260509045657 33 0 0.0 0.0 0.00 0.00 0.00 87 1010.3
20260509044757 34 0 0.0 0.0 0.00 0.00 0.00 87 1010.3
20260509042957 34 0 0.0 0.0 0.00 0.00 0.00 86 1010.2
20260509042057 34 0 0.0 0.0 0.00 0.00 0.00 86 1010.2
20260509041157 35 0 0.0 0.0 0.00 0.00 0.00 86 1010.2
20260509040257 35 0 0.0 0.0 0.00 0.00 0.00 85 1010.2
20260509035357 35 0 0.0 0.0 0.00 0.00 0.00 85 1010.1
20260509034457 36 0 0.0 0.0 0.00 0.00 0.00 84 1010.1
20260509033557 36 0 0.0 0.0 0.00 0.00 0.00 84 1010.1
20260509032657 36 0 0.0 0.0 0.00 0.00 0.00 83 1010.0
20260509031757 36 0 0.0 0.0 0.00 0.00 0.00 83 1010.0
20260509025957 37 0 0.0 0.0 0.00 0.00 0.00 81 1009.8
20260509025057 38 0 0.0 0.0 0.00 0.00 0.00 81 1009.7
20260509024156 38 0 0.0 0.0 0.00 0.00 0.00 80 1009.6
20260509023257 39 0 0.0 0.0 0.00 0.00 0.00 79 1009.7
20260509022357 39 0 0.0 0.0 0.00 0.00 0.00 77 1009.6
20260509021457 40 0 0.0 0.0 0.00 0.00 0.00 76 1009.6
20260509020556 40 0 0.0 0.0 0.00 0.00 0.00 75 1009.5
20260509015657 41 0 0.0 0.0 0.00 0.00 0.00 75 1009.3
20260509014756 42 0 0.0 0.0 0.00 0.00 0.00 74 1009.3
20260509013856 42 0 0.0 0.0 0.00 0.00 0.00 73 1009.2
20260509012956 43 0 0.0 0.0 0.00 0.00 0.00 71 1009.1
20260509010256 44 0 0.0 0.0 0.00 0.00 0.00 69 1008.6
20260509005356 44 0 0.0 0.0 0.00 0.00 0.00 68 1008.4
20260509003556 44 255 0.0 3.0 0.00 0.00 0.00 65 1008.2
20260509001756 45 255 0.0 3.0 0.00 0.00 0.00 63 1007.9
20260509000856 45 254 1.0 5.0 0.00 0.00 0.00 63 1007.9
20260508235956 46 252 0.0 2.0 0.00 0.00 0.00 63 1007.8
20260508235056 46 250 1.0 4.0 0.00 0.00 0.00 64 1007.8
20260508234156 46 262 0.0 3.0 0.00 0.00 0.00 62 1007.6
20260508233256 46 245 1.0 5.0 0.00 0.00 0.00 64 1007.5
20260508232356 46 211 1.0 5.0 0.00 0.00 0.00 64 1007.5
20260508231456 46 228 0.0 2.0 0.00 0.00 0.00 63 1007.3
20260508230556 47 235 1.0 4.0 0.00 0.00 0.00 63 1007.2
20260508225657 47 253 1.0 3.0 0.00 0.00 0.00 64 1007.4
20260508224756 47 271 1.0 5.0 0.00 0.00 0.00 61 1007.3
20260508222956 48 220 1.0 4.0 0.00 0.00 0.00 60 1007.2
20260508222057 48 235 1.0 5.0 0.00 0.00 0.00 57 1007.1
20260508221156 49 215 1.0 4.0 0.00 0.00 0.00 56 1007.1
20260508220256 50 259 2.0 7.0 0.00 0.00 0.00 57 1007.1
20260508215356 50 242 2.0 9.0 0.00 0.00 0.00 58 1006.9
20260508214456 50 214 1.0 6.0 0.00 0.00 0.00 59 1007.0
20260508213556 50 246 1.0 6.0 0.00 0.00 0.00 54 1006.9
20260508212656 50 248 1.0 5.0 0.00 0.00 0.00 47 1006.8
20260508211756 50 247 1.0 5.0 0.00 0.00 0.00 48 1006.6
20260508210856 51 310 1.0 5.0 0.00 0.00 0.00 43 1006.4
20260508205056 51 245 2.0 7.0 0.00 0.00 0.00 46 1006.2
20260508204156 51 236 1.0 4.0 0.00 0.00 0.00 46 1006.3
20260508203256 51 264 1.0 6.0 0.00 0.00 0.00 45 1006.3
20260508202356 51 241 1.0 4.0 0.00 0.00 0.00 45 1006.1
20260508200556 51 308 1.0 9.0 0.00 0.00 0.00 43 1006.1
20260508195656 51 254 1.0 5.0 0.00 0.00 0.00 43 1006.1
20260508194756 51 252 1.0 3.0 0.00 0.00 0.00 45 1006.2
20260508192956 52 222 1.0 3.0 0.00 0.00 0.00 43 1006.1
20260508190256 52 250 1.0 5.0 0.00 0.00 0.00 43 1006.1
20260508185356 52 277 2.0 8.0 0.00 0.00 0.00 41 1006.1
20260508184456 52 243 1.0 7.0 0.00 0.00 0.00 46 1006.1
20260508182656 51 233 1.0 7.0 0.00 0.00 0.00 45 1006.3
20260508180856 51 266 2.0 8.0 0.00 0.00 0.00 44 1006.5
20260508174156 50 253 1.0 6.0 0.00 0.00 0.00 44 1006.5
20260508173256 50 273 1.0 7.0 0.00 0.00 0.00 46 1006.4
20260508172356 50 271 1.0 7.0 0.00 0.00 0.00 41 1006.5
20260508171455 49 258 1.0 8.0 0.00 0.00 0.00 43 1006.7
20260508170555 49 268 1.0 7.0 0.00 0.00 0.00 45 1006.5
20260508165656 49 267 1.0 6.0 0.00 0.00 0.00 43 1006.6
20260508164755 50 254 1.0 9.0 0.00 0.00 0.00 44 1006.6
20260508163855 50 277 1.0 6.0 0.00 0.00 0.00 44 1006.7
20260508162955 51 295 1.0 4.0 0.00 0.00 0.00 41 1006.6
20260508162055 51 280 1.0 4.0 0.00 0.00 0.00 40 1006.5
20260508161155 52 255 1.0 6.0 0.00 0.00 0.00 43 1006.5
20260508160255 51 278 2.0 8.0 0.00 0.00 0.00 44 1006.6
20260508155355 51 302 1.0 8.0 0.00 0.00 0.00 41 1006.3
20260508153555 52 295 2.0 10.0 0.00 0.00 0.00 37 1006.3
20260508152655 51 297 2.0 9.0 0.00 0.00 0.00 41 1006.2
20260508151755 50 319 1.0 10.0 0.00 0.00 0.00 44 1006.2
20260508150855 50 292 1.0 5.0 0.00 0.00 0.00 43 1006.3
20260508145955 50 316 1.0 9.0 0.00 0.00 0.00 40 1006.4
20260508145055 50 283 2.0 11.0 0.00 0.00 0.00 47 1006.4
20260508144155 49 301 2.0 11.0 0.00 0.00 0.00 46 1006.5
20260508140555 48 256 2.0 8.0 0.00 0.00 0.00 50 1006.7
20260508135655 47 260 2.0 8.0 0.00 0.00 0.00 54 1006.7
20260508134755 46 283 1.0 6.0 0.00 0.00 0.00 56 1006.7
20260508132955 45 288 1.0 6.0 0.00 0.00 0.00 53 1006.8
20260508132055 44 301 1.0 9.0 0.00 0.00 0.00 59 1006.8
20260508131155 44 256 1.0 8.0 0.00 0.00 0.00 58 1006.9
20260508125355 44 279 1.0 6.0 0.00 0.00 0.00 57 1006.9
20260508124455 44 276 1.0 9.0 0.00 0.00 0.00 59 1006.8
20260508123555 43 291 1.0 5.0 0.00 0.00 0.00 60 1006.8
20260508122655 42 307 1.0 4.0 0.00 0.00 0.00 64 1006.8
20260508121755 42 238 1.0 4.0 0.00 0.00 0.00 69 1006.9
20260508120855 40 247 1.0 6.0 0.00 0.00 0.00 67 1006.8
20260508115955 40 227 1.0 4.0 0.00 0.00 0.00 73 1006.9
20260508114155 38 301 0.0 6.0 0.00 0.00 0.00 73 1006.8
20260508113255 37 253 0.0 3.0 0.00 0.01 0.00 76 1006.7